Total_Precipitation_Accumulation
0.17 0.12 0.10 0.03 0.04 0.11 0.10 0.07 0.06 0.10 0.12 0.14 0.13 0.16 0.10 0.09 0.07 0.05 0.04 0.03 0.02 0.02
0.28 0.19 0.12 0.07 0.06 0.15 0.23 0.16 0.12 0.10 0.09 0.09 0.09 0.13 0.11 0.07 0.04 0.03 0.03 0.02 0.02 0.02
0.30 0.48 0.25 0.15 0.18 0.21 0.26 0.27 0.22 0.17 0.16 0.14 0.11 0.13 0.11 0.09 0.06 0.04 0.03 0.03 0.03 0.02
0.31 0.75 0.59 0.36 0.14 0.30 0.40 0.39 0.32 0.26 0.22 0.17 0.17 0.15 0.17 0.13 0.09 0.09 0.06 0.04 0.04 0.04
0.29 0.57 0.79 0.72 0.46 0.33 0.49 0.47 0.38 0.35 0.30 0.25 0.21 0.18 0.20 0.22 0.15 0.09 0.09 0.08 0.05 0.04
0.15 0.28 0.72 0.64 0.74 0.46 0.47 0.60 0.49 0.42 0.34 0.30 0.27 0.27 0.20 0.17 0.16 0.12 0.08 0.08 0.08 0.06
0.13 0.12 0.24 0.52 0.59 0.72 0.47 0.59 0.53 0.37 0.35 0.29 0.27 0.29 0.29 0.24 0.21 0.22 0.18 0.12 0.09 0.09
0.07 0.08 0.08 0.15 0.29 0.50 0.56 0.58 0.90 0.73 0.47 0.38 0.33 0.29 0.29 0.28 0.27 0.24 0.26 0.24 0.19 0.16
0.05 0.05 0.05 0.06 0.11 0.20 0.45 0.56 0.69 1.00 0.80 0.50 0.38 0.45 0.36 0.29 0.26 0.25 0.23 0.24 0.23 0.20
0.03 0.02 0.03 0.04 0.05 0.11 0.18 0.35 0.62 0.72 0.76 0.76 0.55 0.53 0.49 0.38 0.27 0.25 0.23 0.22 0.21 0.18
0.02 0.04 0.02 0.03 0.04 0.07 0.09 0.12 0.31 0.46 0.42 0.56 0.60 0.61 0.55 0.45 0.28 0.17 0.16 0.17 0.19 0.19
0.00 0.02 0.06 0.06 0.04 0.07 0.09 0.10 0.14 0.27 0.40 0.35 0.40 0.57 0.57 0.51 0.39 0.27 0.14 0.12 0.16 0.20
0.00 0.01 0.03 0.09 0.17 0.15 0.14 0.21 0.15 0.16 0.24 0.41 0.39 0.59 0.40 0.34 0.33 0.38 0.33 0.19 0.15 0.20
0.00 0.00 0.01 0.03 0.06 0.11 0.14 0.12 0.20 0.27 0.29 0.34 0.45 0.41 0.44 0.44 0.35 0.34 0.39 0.40 0.27 0.16